#datetime,building,power
2022-04-07T00:00:00,75s,3.31
2022-04-07T00:01:00,75s,2.77
2022-04-07T00:02:00,75s,2.70
2022-04-07T00:03:00,75s,2.69
2022-04-07T00:04:00,75s,2.67
2022-04-07T00:05:00,75s,3.09
2022-04-07T00:06:00,75s,3.04
2022-04-07T00:07:00,75s,3.04
2022-04-07T00:08:00,75s,3.64
2022-04-07T00:09:00,75s,3.20
2022-04-07T00:10:00,75s,3.32
2022-04-07T00:11:00,75s,3.36
2022-04-07T00:12:00,75s,3.32
2022-04-07T00:13:00,75s,3.10
2022-04-07T00:14:00,75s,3.09
2022-04-07T00:15:00,75s,3.09
2022-04-07T00:16:00,75s,3.09
2022-04-07T00:17:00,75s,3.14
2022-04-07T00:18:00,75s,2.51
2022-04-07T00:19:00,75s,2.67
2022-04-07T00:20:00,75s,2.28
2022-04-07T00:21:00,75s,2.44
2022-04-07T00:22:00,75s,2.39
2022-04-07T00:23:00,75s,2.37
2022-04-07T00:24:00,75s,2.55
2022-04-07T00:25:00,75s,2.29
2022-04-07T00:26:00,75s,2.37
2022-04-07T00:27:00,75s,2.37
2022-04-07T00:28:00,75s,2.37
2022-04-07T00:29:00,75s,2.36
2022-04-07T00:30:00,75s,2.36
2022-04-07T00:31:00,75s,2.36
2022-04-07T00:32:00,75s,2.34
2022-04-07T00:33:00,75s,2.65
2022-04-07T00:34:00,75s,2.33
2022-04-07T00:35:00,75s,2.33
2022-04-07T00:36:00,75s,2.25
2022-04-07T00:37:00,75s,2.26
2022-04-07T00:38:00,75s,2.23
2022-04-07T00:39:00,75s,2.79
2022-04-07T00:40:00,75s,2.59
2022-04-07T00:41:00,75s,2.24
2022-04-07T00:42:00,75s,2.25
2022-04-07T00:43:00,75s,2.18
2022-04-07T00:44:00,75s,2.19
2022-04-07T00:45:00,75s,2.17
2022-04-07T00:46:00,75s,2.25
2022-04-07T00:47:00,75s,2.25
2022-04-07T00:48:00,75s,2.49
2022-04-07T00:49:00,75s,2.18
2022-04-07T00:50:00,75s,2.36
2022-04-07T00:51:00,75s,2.16
2022-04-07T00:52:00,75s,2.62
2022-04-07T00:53:00,75s,2.79
2022-04-07T00:54:00,75s,2.33
2022-04-07T00:55:00,75s,2.26
2022-04-07T00:56:00,75s,2.87
2022-04-07T00:57:00,75s,2.49
2022-04-07T00:58:00,75s,2.25
2022-04-07T00:59:00,75s,2.28
2022-04-07T01:00:00,75s,2.59
2022-04-07T01:01:00,75s,2.59
2022-04-07T01:02:00,75s,2.69
2022-04-07T01:03:00,75s,3.11
2022-04-07T01:04:00,75s,12.15
2022-04-07T01:05:00,75s,11.78
2022-04-07T01:06:00,75s,11.71
2022-04-07T01:07:00,75s,11.49
2022-04-07T01:08:00,75s,11.45
2022-04-07T01:09:00,75s,11.42
2022-04-07T01:10:00,75s,2.61
2022-04-07T01:11:00,75s,2.61
2022-04-07T01:12:00,75s,2.62
2022-04-07T01:13:00,75s,2.62
2022-04-07T01:14:00,75s,2.25
2022-04-07T01:15:00,75s,2.84
2022-04-07T01:16:00,75s,2.41
2022-04-07T01:17:00,75s,2.35
2022-04-07T01:18:00,75s,2.74
2022-04-07T01:19:00,75s,2.41
2022-04-07T01:20:00,75s,2.33
2022-04-07T01:21:00,75s,2.32
2022-04-07T01:22:00,75s,2.32
2022-04-07T01:23:00,75s,2.33
2022-04-07T01:24:00,75s,2.90
2022-04-07T01:25:00,75s,2.90
2022-04-07T01:26:00,75s,2.42
2022-04-07T01:27:00,75s,2.72
2022-04-07T01:28:00,75s,3.00
2022-04-07T01:29:00,75s,2.51
2022-04-07T01:30:00,75s,2.43
2022-04-07T01:31:00,75s,3.02
2022-04-07T01:32:00,75s,2.88
2022-04-07T01:33:00,75s,2.37
2022-04-07T01:34:00,75s,2.53
2022-04-07T01:35:00,75s,2.25
2022-04-07T01:36:00,75s,2.27
2022-04-07T01:37:00,75s,2.32
2022-04-07T01:38:00,75s,2.32
2022-04-07T01:39:00,75s,2.32
2022-04-07T01:40:00,75s,2.52
2022-04-07T01:41:00,75s,2.09
2022-04-07T01:42:00,75s,2.47
2022-04-07T01:43:00,75s,2.49
2022-04-07T01:44:00,75s,2.48
2022-04-07T01:45:00,75s,2.41
2022-04-07T01:46:00,75s,2.40
2022-04-07T01:47:00,75s,2.81
2022-04-07T01:48:00,75s,2.44
2022-04-07T01:49:00,75s,2.51
2022-04-07T01:50:00,75s,2.52
2022-04-07T01:51:00,75s,3.29
2022-04-07T01:52:00,75s,2.46
2022-04-07T01:53:00,75s,2.81
2022-04-07T01:54:00,75s,2.56
2022-04-07T01:55:00,75s,2.55
2022-04-07T01:56:00,75s,2.54
2022-04-07T01:57:00,75s,2.51
2022-04-07T01:58:00,75s,2.52
2022-04-07T01:59:00,75s,2.54
2022-04-07T02:00:00,75s,2.62
2022-04-07T02:01:00,75s,2.07
2022-04-07T02:02:00,75s,2.07
2022-04-07T02:03:00,75s,2.49
2022-04-07T02:04:00,75s,2.07
2022-04-07T02:05:00,75s,2.14
2022-04-07T02:06:00,75s,2.22
2022-04-07T02:07:00,75s,2.15
2022-04-07T02:08:00,75s,2.15
2022-04-07T02:09:00,75s,2.28
2022-04-07T02:10:00,75s,2.12
2022-04-07T02:11:00,75s,2.18
2022-04-07T02:12:00,75s,2.13
2022-04-07T02:13:00,75s,2.58
2022-04-07T02:14:00,75s,2.04
2022-04-07T02:15:00,75s,2.00
2022-04-07T02:16:00,75s,2.24
2022-04-07T02:17:00,75s,1.77
2022-04-07T02:18:00,75s,1.77
2022-04-07T02:19:00,75s,2.44
2022-04-07T02:20:00,75s,1.76
2022-04-07T02:21:00,75s,2.13
2022-04-07T02:22:00,75s,1.71
2022-04-07T02:23:00,75s,1.69
2022-04-07T02:24:00,75s,2.01
2022-04-07T02:25:00,75s,1.81
2022-04-07T02:26:00,75s,1.70
2022-04-07T02:27:00,75s,1.71
2022-04-07T02:28:00,75s,2.31
2022-04-07T02:29:00,75s,1.78
2022-04-07T02:30:00,75s,1.77
2022-04-07T02:31:00,75s,1.90
2022-04-07T02:32:00,75s,1.87
2022-04-07T02:33:00,75s,2.42
2022-04-07T02:34:00,75s,1.90
2022-04-07T02:35:00,75s,1.84
2022-04-07T02:36:00,75s,1.84
2022-04-07T02:37:00,75s,1.84
2022-04-07T02:38:00,75s,2.44
2022-04-07T02:39:00,75s,1.85
2022-04-07T02:40:00,75s,1.91
2022-04-07T02:41:00,75s,1.90
2022-04-07T02:42:00,75s,1.91
2022-04-07T02:43:00,75s,1.93
2022-04-07T02:44:00,75s,1.96
2022-04-07T02:45:00,75s,1.75
2022-04-07T02:46:00,75s,1.75
2022-04-07T02:47:00,75s,2.15
2022-04-07T02:48:00,75s,1.66
2022-04-07T02:49:00,75s,2.21
2022-04-07T02:50:00,75s,1.65
2022-04-07T02:51:00,75s,1.64
2022-04-07T02:52:00,75s,1.64
2022-04-07T02:53:00,75s,2.03
2022-04-07T02:54:00,75s,1.79
2022-04-07T02:55:00,75s,2.15
2022-04-07T02:56:00,75s,1.79
2022-04-07T02:57:00,75s,1.63
2022-04-07T02:58:00,75s,2.47
2022-04-07T02:59:00,75s,1.62
2022-04-07T03:00:00,75s,1.62
2022-04-07T03:01:00,75s,1.86
2022-04-07T03:02:00,75s,1.45
2022-04-07T03:03:00,75s,1.48
2022-04-07T03:04:00,75s,1.50
2022-04-07T03:05:00,75s,2.06
2022-04-07T03:06:00,75s,1.67
2022-04-07T03:07:00,75s,1.74
2022-04-07T03:08:00,75s,2.23
2022-04-07T03:09:00,75s,1.64
2022-04-07T03:10:00,75s,2.01
2022-04-07T03:11:00,75s,1.69
2022-04-07T03:12:00,75s,1.70
2022-04-07T03:13:00,75s,1.69
2022-04-07T03:14:00,75s,1.62
2022-04-07T03:15:00,75s,1.61
2022-04-07T03:16:00,75s,1.67
2022-04-07T03:17:00,75s,1.68
2022-04-07T03:18:00,75s,1.69
2022-04-07T03:19:00,75s,2.17
2022-04-07T03:20:00,75s,1.61
2022-04-07T03:21:00,75s,1.59
2022-04-07T03:22:00,75s,2.05
2022-04-07T03:23:00,75s,1.47
2022-04-07T03:24:00,75s,1.86
2022-04-07T03:25:00,75s,1.55
2022-04-07T03:26:00,75s,2.03
2022-04-07T03:27:00,75s,1.55
2022-04-07T03:28:00,75s,1.53
2022-04-07T03:29:00,75s,1.55
2022-04-07T03:30:00,75s,1.54
2022-04-07T03:31:00,75s,1.52
2022-04-07T03:32:00,75s,1.51
2022-04-07T03:33:00,75s,1.52
2022-04-07T03:34:00,75s,2.18
2022-04-07T03:35:00,75s,1.91
2022-04-07T03:36:00,75s,1.73
2022-04-07T03:37:00,75s,1.58
2022-04-07T03:38:00,75s,1.58
2022-04-07T03:39:00,75s,1.83
2022-04-07T03:40:00,75s,1.53
2022-04-07T03:41:00,75s,1.60
2022-04-07T03:42:00,75s,1.60
2022-04-07T03:43:00,75s,1.79
2022-04-07T03:44:00,75s,1.83
2022-04-07T03:45:00,75s,1.73
2022-04-07T03:46:00,75s,2.21
2022-04-07T03:47:00,75s,1.67
2022-04-07T03:48:00,75s,1.68
2022-04-07T03:49:00,75s,1.83
2022-04-07T03:50:00,75s,1.96
2022-04-07T03:51:00,75s,1.80
2022-04-07T03:52:00,75s,1.72
2022-04-07T03:53:00,75s,2.21
2022-04-07T03:54:00,75s,1.70
2022-04-07T03:55:00,75s,1.65
2022-04-07T03:56:00,75s,1.89
2022-04-07T03:57:00,75s,1.65
2022-04-07T03:58:00,75s,1.60
2022-04-07T03:59:00,75s,1.60
2022-04-07T04:00:00,75s,1.64
2022-04-07T04:01:00,75s,1.60
2022-04-07T04:02:00,75s,1.61
2022-04-07T04:03:00,75s,1.53
2022-04-07T04:04:00,75s,1.50
2022-04-07T04:05:00,75s,1.50
2022-04-07T04:06:00,75s,1.50
2022-04-07T04:07:00,75s,1.54
2022-04-07T04:08:00,75s,1.78
2022-04-07T04:09:00,75s,1.56
2022-04-07T04:10:00,75s,1.62
2022-04-07T04:11:00,75s,1.90
2022-04-07T04:12:00,75s,1.68
2022-04-07T04:13:00,75s,1.60
2022-04-07T04:14:00,75s,2.00
2022-04-07T04:15:00,75s,1.61
2022-04-07T04:16:00,75s,1.60
2022-04-07T04:17:00,75s,1.66
2022-04-07T04:18:00,75s,1.67
2022-04-07T04:19:00,75s,2.02
2022-04-07T04:20:00,75s,1.68
2022-04-07T04:21:00,75s,1.77
2022-04-07T04:22:00,75s,1.73
2022-04-07T04:23:00,75s,2.15
2022-04-07T04:24:00,75s,1.72
2022-04-07T04:25:00,75s,1.73
2022-04-07T04:26:00,75s,1.70
2022-04-07T04:27:00,75s,1.99
2022-04-07T04:28:00,75s,1.56
2022-04-07T04:29:00,75s,1.56
2022-04-07T04:30:00,75s,1.56
2022-04-07T04:31:00,75s,1.55
2022-04-07T04:32:00,75s,1.50
2022-04-07T04:33:00,75s,1.55
2022-04-07T04:34:00,75s,1.62
2022-04-07T04:35:00,75s,1.85
2022-04-07T04:36:00,75s,1.57
2022-04-07T04:37:00,75s,1.49
2022-04-07T04:38:00,75s,1.47
2022-04-07T04:39:00,75s,1.46
2022-04-07T04:40:00,75s,1.46
2022-04-07T04:41:00,75s,1.47
2022-04-07T04:42:00,75s,1.47
2022-04-07T04:43:00,75s,1.46
2022-04-07T04:44:00,75s,1.56
2022-04-07T04:45:00,75s,2.13
2022-04-07T04:46:00,75s,1.57
2022-04-07T04:47:00,75s,1.74
2022-04-07T04:48:00,75s,1.62
2022-04-07T04:49:00,75s,1.97
2022-04-07T04:50:00,75s,1.55
2022-04-07T04:51:00,75s,1.55
2022-04-07T04:52:00,75s,1.55
2022-04-07T04:53:00,75s,1.56
2022-04-07T04:54:00,75s,1.56
2022-04-07T04:55:00,75s,2.00
2022-04-07T04:56:00,75s,2.02
2022-04-07T04:57:00,75s,2.12
2022-04-07T04:58:00,75s,1.69
2022-04-07T04:59:00,75s,1.68
2022-04-07T05:00:00,75s,1.62
2022-04-07T05:01:00,75s,1.54
2022-04-07T05:02:00,75s,1.56
2022-04-07T05:03:00,75s,1.66
2022-04-07T05:04:00,75s,1.65
2022-04-07T05:05:00,75s,1.95
2022-04-07T05:06:00,75s,1.71
2022-04-07T05:07:00,75s,1.77
2022-04-07T05:08:00,75s,1.69
2022-04-07T05:09:00,75s,1.56
2022-04-07T05:10:00,75s,1.49
2022-04-07T05:11:00,75s,1.50
2022-04-07T05:12:00,75s,1.50
2022-04-07T05:13:00,75s,2.94
2022-04-07T05:14:00,75s,3.57
2022-04-07T05:15:00,75s,3.43
2022-04-07T05:16:00,75s,2.91
2022-04-07T05:17:00,75s,2.89
2022-04-07T05:18:00,75s,3.18
2022-04-07T05:19:00,75s,2.92
2022-04-07T05:20:00,75s,2.91
2022-04-07T05:21:00,75s,2.96
2022-04-07T05:22:00,75s,3.29
2022-04-07T05:23:00,75s,3.11
2022-04-07T05:24:00,75s,2.87
2022-04-07T05:25:00,75s,3.02
2022-04-07T05:26:00,75s,3.20
2022-04-07T05:27:00,75s,2.93
2022-04-07T05:28:00,75s,2.87
2022-04-07T05:29:00,75s,3.69
2022-04-07T05:30:00,75s,2.93
2022-04-07T05:31:00,75s,2.93
2022-04-07T05:32:00,75s,3.02
2022-04-07T05:33:00,75s,3.03
2022-04-07T05:34:00,75s,3.23
2022-04-07T05:35:00,75s,2.88
2022-04-07T05:36:00,75s,2.86
2022-04-07T05:37:00,75s,2.97
2022-04-07T05:38:00,75s,2.96
2022-04-07T05:39:00,75s,2.91
2022-04-07T05:40:00,75s,2.94
2022-04-07T05:41:00,75s,2.88
2022-04-07T05:42:00,75s,2.87
2022-04-07T05:43:00,75s,3.34
2022-04-07T05:44:00,75s,2.97
2022-04-07T05:45:00,75s,2.97
2022-04-07T05:46:00,75s,2.91
2022-04-07T05:47:00,75s,2.90
2022-04-07T05:48:00,75s,2.94
2022-04-07T05:49:00,75s,3.05
2022-04-07T05:50:00,75s,3.06
2022-04-07T05:51:00,75s,3.04
2022-04-07T05:52:00,75s,2.97
2022-04-07T05:53:00,75s,3.18
2022-04-07T05:54:00,75s,3.09
2022-04-07T05:55:00,75s,3.16
2022-04-07T05:56:00,75s,3.16
2022-04-07T05:57:00,75s,3.17
2022-04-07T05:58:00,75s,3.10
2022-04-07T05:59:00,75s,3.08
2022-04-07T06:00:00,75s,3.19
2022-04-07T06:01:00,75s,3.23
2022-04-07T06:02:00,75s,3.32
2022-04-07T06:03:00,75s,3.39
2022-04-07T06:04:00,75s,3.28
2022-04-07T06:05:00,75s,3.27
2022-04-07T06:06:00,75s,3.33
2022-04-07T06:07:00,75s,3.82
2022-04-07T06:08:00,75s,3.77
2022-04-07T06:09:00,75s,3.31
2022-04-07T06:10:00,75s,12.36
2022-04-07T06:11:00,75s,12.44
2022-04-07T06:12:00,75s,12.65
2022-04-07T06:13:00,75s,12.18
2022-04-07T06:14:00,75s,12.11
2022-04-07T06:15:00,75s,11.93
2022-04-07T06:16:00,75s,3.58
2022-04-07T06:17:00,75s,3.35
2022-04-07T06:18:00,75s,3.41
2022-04-07T06:19:00,75s,3.46
2022-04-07T06:20:00,75s,3.44
2022-04-07T06:21:00,75s,3.34
2022-04-07T06:22:00,75s,3.19
2022-04-07T06:23:00,75s,3.27
2022-04-07T06:24:00,75s,3.27
2022-04-07T06:25:00,75s,3.25
2022-04-07T06:26:00,75s,3.20
2022-04-07T06:27:00,75s,3.26
2022-04-07T06:28:00,75s,3.24
2022-04-07T06:29:00,75s,3.28
2022-04-07T06:30:00,75s,3.29
2022-04-07T06:31:00,75s,3.54
2022-04-07T06:32:00,75s,3.22
2022-04-07T06:33:00,75s,3.24
2022-04-07T06:34:00,75s,3.27
2022-04-07T06:35:00,75s,3.65
2022-04-07T06:36:00,75s,3.64
2022-04-07T06:37:00,75s,3.58
2022-04-07T06:38:00,75s,3.80
2022-04-07T06:39:00,75s,3.59
2022-04-07T06:40:00,75s,3.59
2022-04-07T06:41:00,75s,3.54
2022-04-07T06:42:00,75s,3.50
2022-04-07T06:43:00,75s,3.52
2022-04-07T06:44:00,75s,3.51
2022-04-07T06:45:00,75s,3.52
2022-04-07T06:46:00,75s,3.47
2022-04-07T06:47:00,75s,3.50
2022-04-07T06:48:00,75s,3.40
2022-04-07T06:49:00,75s,3.39
2022-04-07T06:50:00,75s,3.40
2022-04-07T06:51:00,75s,3.37
2022-04-07T06:52:00,75s,3.38
2022-04-07T06:53:00,75s,3.37
2022-04-07T06:54:00,75s,3.37
2022-04-07T06:55:00,75s,14.33
2022-04-07T06:56:00,75s,3.39
2022-04-07T06:57:00,75s,3.42
2022-04-07T06:58:00,75s,3.65
2022-04-07T06:59:00,75s,3.55
2022-04-07T07:00:00,75s,3.61
2022-04-07T07:01:00,75s,3.69
2022-04-07T07:02:00,75s,3.62
2022-04-07T07:03:00,75s,3.48
2022-04-07T07:04:00,75s,3.50
2022-04-07T07:05:00,75s,3.50
2022-04-07T07:06:00,75s,3.50
2022-04-07T07:07:00,75s,4.33
2022-04-07T07:08:00,75s,3.50
2022-04-07T07:09:00,75s,3.56
2022-04-07T07:10:00,75s,3.53
2022-04-07T07:11:00,75s,3.52
2022-04-07T07:12:00,75s,3.61
2022-04-07T07:13:00,75s,3.61
2022-04-07T07:14:00,75s,3.74
2022-04-07T07:15:00,75s,3.81
2022-04-07T07:16:00,75s,3.64
2022-04-07T07:17:00,75s,4.02
2022-04-07T07:18:00,75s,3.48
2022-04-07T07:19:00,75s,3.47
2022-04-07T07:20:00,75s,3.60
2022-04-07T07:21:00,75s,4.11
2022-04-07T07:22:00,75s,3.75
2022-04-07T07:23:00,75s,3.77
2022-04-07T07:24:00,75s,3.75
2022-04-07T07:25:00,75s,3.89
2022-04-07T07:26:00,75s,3.85
2022-04-07T07:27:00,75s,4.20
2022-04-07T07:28:00,75s,4.36
2022-04-07T07:29:00,75s,4.38
2022-04-07T07:30:00,75s,4.36
2022-04-07T07:31:00,75s,4.28
2022-04-07T07:32:00,75s,4.27
2022-04-07T07:33:00,75s,4.30
2022-04-07T07:34:00,75s,4.14
2022-04-07T07:35:00,75s,4.24
2022-04-07T07:36:00,75s,4.31
2022-04-07T07:37:00,75s,4.27
2022-04-07T07:38:00,75s,4.30
2022-04-07T07:39:00,75s,4.41
2022-04-07T07:40:00,75s,4.50
2022-04-07T07:41:00,75s,4.49
2022-04-07T07:42:00,75s,4.41
2022-04-07T07:43:00,75s,4.39
2022-04-07T07:44:00,75s,4.37
2022-04-07T07:45:00,75s,4.42
2022-04-07T07:46:00,75s,4.63
2022-04-07T07:47:00,75s,4.44
2022-04-07T07:48:00,75s,4.89
2022-04-07T07:49:00,75s,5.81
2022-04-07T07:50:00,75s,5.27
2022-04-07T07:51:00,75s,5.16
2022-04-07T07:52:00,75s,5.14
2022-04-07T07:53:00,75s,5.62
2022-04-07T07:54:00,75s,5.63
2022-04-07T07:55:00,75s,5.82
2022-04-07T07:56:00,75s,5.46
2022-04-07T07:57:00,75s,5.49
2022-04-07T07:58:00,75s,5.87
2022-04-07T07:59:00,75s,6.05
2022-04-07T08:00:00,75s,5.93
2022-04-07T08:01:00,75s,5.55
2022-04-07T08:02:00,75s,5.96
2022-04-07T08:03:00,75s,6.00
2022-04-07T08:04:00,75s,6.18
2022-04-07T08:05:00,75s,6.06
2022-04-07T08:06:00,75s,5.72
2022-04-07T08:07:00,75s,5.84
2022-04-07T08:08:00,75s,5.79
2022-04-07T08:09:00,75s,5.87
2022-04-07T08:10:00,75s,6.53
2022-04-07T08:11:00,75s,5.85
2022-04-07T08:12:00,75s,5.77
2022-04-07T08:13:00,75s,5.85
2022-04-07T08:14:00,75s,5.92
2022-04-07T08:15:00,75s,5.98
2022-04-07T08:16:00,75s,5.82
2022-04-07T08:17:00,75s,5.79
2022-04-07T08:18:00,75s,6.19
2022-04-07T08:19:00,75s,7.06
2022-04-07T08:20:00,75s,6.51
2022-04-07T08:21:00,75s,6.06
2022-04-07T08:22:00,75s,5.98
2022-04-07T08:23:00,75s,5.86
2022-04-07T08:24:00,75s,5.85
2022-04-07T08:25:00,75s,6.24
2022-04-07T08:26:00,75s,5.91
2022-04-07T08:27:00,75s,5.75
2022-04-07T08:28:00,75s,5.50
2022-04-07T08:29:00,75s,5.79
2022-04-07T08:30:00,75s,6.78
2022-04-07T08:31:00,75s,6.11
2022-04-07T08:32:00,75s,5.95
2022-04-07T08:33:00,75s,5.85
2022-04-07T08:34:00,75s,5.84
2022-04-07T08:35:00,75s,5.84
2022-04-07T08:36:00,75s,6.03
2022-04-07T08:37:00,75s,6.03
2022-04-07T08:38:00,75s,6.02
2022-04-07T08:39:00,75s,6.42
2022-04-07T08:40:00,75s,5.88
2022-04-07T08:41:00,75s,5.78
2022-04-07T08:42:00,75s,5.77
2022-04-07T08:43:00,75s,5.88
2022-04-07T08:44:00,75s,5.89
2022-04-07T08:45:00,75s,5.75
2022-04-07T08:46:00,75s,5.80
2022-04-07T08:47:00,75s,5.76
2022-04-07T08:48:00,75s,5.77
2022-04-07T08:49:00,75s,5.82
2022-04-07T08:50:00,75s,5.84
2022-04-07T08:51:00,75s,6.58
2022-04-07T08:52:00,75s,6.60
2022-04-07T08:53:00,75s,5.91
2022-04-07T08:54:00,75s,5.84
2022-04-07T08:55:00,75s,5.88
2022-04-07T08:56:00,75s,6.24
2022-04-07T08:57:00,75s,5.88
2022-04-07T08:58:00,75s,5.86
2022-04-07T08:59:00,75s,5.90
2022-04-07T09:00:00,75s,5.90
2022-04-07T09:01:00,75s,5.97
2022-04-07T09:02:00,75s,6.13
2022-04-07T09:03:00,75s,5.82
2022-04-07T09:04:00,75s,5.91
2022-04-07T09:05:00,75s,5.90
2022-04-07T09:06:00,75s,5.82
2022-04-07T09:07:00,75s,5.86
2022-04-07T09:08:00,75s,5.78
2022-04-07T09:09:00,75s,5.76
2022-04-07T09:10:00,75s,5.74
2022-04-07T09:11:00,75s,5.78
2022-04-07T09:12:00,75s,5.75
2022-04-07T09:13:00,75s,5.87
2022-04-07T09:14:00,75s,5.71
2022-04-07T09:15:00,75s,5.71
2022-04-07T09:16:00,75s,5.68
2022-04-07T09:17:00,75s,5.70
2022-04-07T09:18:00,75s,6.15
2022-04-07T09:19:00,75s,6.18
2022-04-07T09:20:00,75s,5.86
2022-04-07T09:21:00,75s,6.01
2022-04-07T09:22:00,75s,5.78
2022-04-07T09:23:00,75s,5.86
2022-04-07T09:24:00,75s,5.82
2022-04-07T09:25:00,75s,5.88
2022-04-07T09:26:00,75s,5.97
2022-04-07T09:27:00,75s,5.97
2022-04-07T09:28:00,75s,6.08
2022-04-07T09:29:00,75s,6.07
2022-04-07T09:30:00,75s,6.07
2022-04-07T09:31:00,75s,6.34
2022-04-07T09:32:00,75s,6.55
2022-04-07T09:33:00,75s,6.07
2022-04-07T09:34:00,75s,6.12
2022-04-07T09:35:00,75s,6.11
2022-04-07T09:36:00,75s,6.15
2022-04-07T09:37:00,75s,6.08
2022-04-07T09:38:00,75s,6.05
2022-04-07T09:39:00,75s,6.08
2022-04-07T09:40:00,75s,6.09
2022-04-07T09:41:00,75s,6.35
2022-04-07T09:42:00,75s,6.36
2022-04-07T09:43:00,75s,6.51
2022-04-07T09:44:00,75s,6.27
2022-04-07T09:45:00,75s,6.25
2022-04-07T09:46:00,75s,6.34
2022-04-07T09:47:00,75s,6.29
2022-04-07T09:48:00,75s,6.31
2022-04-07T09:49:00,75s,6.37
2022-04-07T09:50:00,75s,15.55
2022-04-07T09:51:00,75s,15.51
2022-04-07T09:52:00,75s,15.40
2022-04-07T09:53:00,75s,15.31
2022-04-07T09:54:00,75s,15.24
2022-04-07T09:55:00,75s,15.25
2022-04-07T09:56:00,75s,6.45
2022-04-07T09:57:00,75s,6.32
2022-04-07T09:58:00,75s,6.31
2022-04-07T09:59:00,75s,6.62
2022-04-07T10:00:00,75s,6.31
2022-04-07T10:01:00,75s,6.50
2022-04-07T10:02:00,75s,6.53
2022-04-07T10:03:00,75s,6.87
2022-04-07T10:04:00,75s,6.92
2022-04-07T10:05:00,75s,6.76
2022-04-07T10:06:00,75s,6.75
2022-04-07T10:07:00,75s,6.86
2022-04-07T10:08:00,75s,6.88
2022-04-07T10:09:00,75s,6.96
2022-04-07T10:10:00,75s,7.45
2022-04-07T10:11:00,75s,6.89
2022-04-07T10:12:00,75s,6.91
2022-04-07T10:13:00,75s,6.81
2022-04-07T10:14:00,75s,6.92
2022-04-07T10:15:00,75s,7.13
2022-04-07T10:16:00,75s,7.04
2022-04-07T10:17:00,75s,7.34
2022-04-07T10:18:00,75s,7.20
2022-04-07T10:19:00,75s,7.21
2022-04-07T10:20:00,75s,7.20
2022-04-07T10:21:00,75s,7.30
2022-04-07T10:22:00,75s,7.35
2022-04-07T10:23:00,75s,7.51
2022-04-07T10:24:00,75s,7.56
2022-04-07T10:25:00,75s,8.00
2022-04-07T10:26:00,75s,7.57
2022-04-07T10:27:00,75s,7.62
2022-04-07T10:28:00,75s,7.63
2022-04-07T10:29:00,75s,7.59
2022-04-07T10:30:00,75s,7.70
2022-04-07T10:31:00,75s,7.51
2022-04-07T10:32:00,75s,7.62
2022-04-07T10:33:00,75s,7.60
2022-04-07T10:34:00,75s,8.12
2022-04-07T10:35:00,75s,8.17
2022-04-07T10:36:00,75s,7.55
2022-04-07T10:37:00,75s,7.55
2022-04-07T10:38:00,75s,7.54
2022-04-07T10:39:00,75s,7.55
2022-04-07T10:40:00,75s,7.57
2022-04-07T10:41:00,75s,7.53
2022-04-07T10:42:00,75s,7.44
2022-04-07T10:43:00,75s,7.41
2022-04-07T10:44:00,75s,7.42
2022-04-07T10:45:00,75s,7.35
2022-04-07T10:46:00,75s,7.34
2022-04-07T10:47:00,75s,7.18
2022-04-07T10:48:00,75s,7.24
2022-04-07T10:49:00,75s,8.42
2022-04-07T10:50:00,75s,7.79
2022-04-07T10:51:00,75s,7.76
2022-04-07T10:52:00,75s,7.85
2022-04-07T10:53:00,75s,7.85
2022-04-07T10:54:00,75s,8.50
2022-04-07T10:55:00,75s,8.05
2022-04-07T10:56:00,75s,8.14
2022-04-07T10:57:00,75s,8.04
2022-04-07T10:58:00,75s,8.39
2022-04-07T10:59:00,75s,7.93
2022-04-07T11:00:00,75s,8.01
2022-04-07T11:01:00,75s,8.61
2022-04-07T11:02:00,75s,8.10
2022-04-07T11:03:00,75s,7.91
2022-04-07T11:04:00,75s,7.94
2022-04-07T11:05:00,75s,7.98
2022-04-07T11:06:00,75s,8.09
2022-04-07T11:07:00,75s,7.97
2022-04-07T11:08:00,75s,8.00
2022-04-07T11:09:00,75s,7.85
2022-04-07T11:10:00,75s,7.80
2022-04-07T11:11:00,75s,8.01
2022-04-07T11:12:00,75s,7.89
2022-04-07T11:13:00,75s,7.55
2022-04-07T11:14:00,75s,7.54
2022-04-07T11:15:00,75s,7.60
2022-04-07T11:16:00,75s,7.47
2022-04-07T11:17:00,75s,7.49
2022-04-07T11:18:00,75s,7.47
2022-04-07T11:19:00,75s,8.05
2022-04-07T11:20:00,75s,7.89
2022-04-07T11:21:00,75s,8.15
2022-04-07T11:22:00,75s,7.86
2022-04-07T11:23:00,75s,7.79
2022-04-07T11:24:00,75s,7.92
2022-04-07T11:25:00,75s,8.36
2022-04-07T11:26:00,75s,8.01
2022-04-07T11:27:00,75s,7.99
2022-04-07T11:28:00,75s,8.08
2022-04-07T11:29:00,75s,7.97
2022-04-07T11:30:00,75s,8.07
2022-04-07T11:31:00,75s,8.16
2022-04-07T11:32:00,75s,8.11
2022-04-07T11:33:00,75s,8.43
2022-04-07T11:34:00,75s,8.21
2022-04-07T11:35:00,75s,7.93
2022-04-07T11:36:00,75s,7.96
2022-04-07T11:37:00,75s,7.96
2022-04-07T11:38:00,75s,8.00
2022-04-07T11:39:00,75s,7.96
2022-04-07T11:40:00,75s,7.94
2022-04-07T11:41:00,75s,7.97
2022-04-07T11:42:00,75s,8.14
2022-04-07T11:43:00,75s,8.15
2022-04-07T11:44:00,75s,8.59
2022-04-07T11:45:00,75s,7.98
2022-04-07T11:46:00,75s,8.00
2022-04-07T11:47:00,75s,8.20
2022-04-07T11:48:00,75s,7.98
2022-04-07T11:49:00,75s,7.98
2022-04-07T11:50:00,75s,7.95
2022-04-07T11:51:00,75s,7.93
2022-04-07T11:52:00,75s,7.88
2022-04-07T11:53:00,75s,8.11
2022-04-07T11:54:00,75s,7.98
2022-04-07T11:55:00,75s,7.94
2022-04-07T11:56:00,75s,7.85
2022-04-07T11:57:00,75s,8.17
2022-04-07T11:58:00,75s,7.78
2022-04-07T11:59:00,75s,8.39
2022-04-07T12:00:00,75s,7.76
2022-04-07T12:01:00,75s,7.72
2022-04-07T12:02:00,75s,7.72
2022-04-07T12:03:00,75s,7.74
2022-04-07T12:04:00,75s,7.86
2022-04-07T12:05:00,75s,8.01
2022-04-07T12:06:00,75s,8.52
2022-04-07T12:07:00,75s,8.04
2022-04-07T12:08:00,75s,7.84
2022-04-07T12:09:00,75s,8.88
2022-04-07T12:10:00,75s,9.60
2022-04-07T12:11:00,75s,8.03
2022-04-07T12:12:00,75s,7.95
2022-04-07T12:13:00,75s,7.94
2022-04-07T12:14:00,75s,7.92
2022-04-07T12:15:00,75s,7.93
2022-04-07T12:16:00,75s,8.25
2022-04-07T12:17:00,75s,9.06
2022-04-07T12:18:00,75s,8.82
2022-04-07T12:19:00,75s,8.69
2022-04-07T12:20:00,75s,8.17
2022-04-07T12:21:00,75s,7.94
2022-04-07T12:22:00,75s,7.01
2022-04-07T12:23:00,75s,8.24
2022-04-07T12:24:00,75s,8.26
2022-04-07T12:25:00,75s,8.19
2022-04-07T12:26:00,75s,8.25
2022-04-07T12:27:00,75s,7.47
2022-04-07T12:28:00,75s,7.29
2022-04-07T12:29:00,75s,6.94
2022-04-07T12:30:00,75s,6.98
2022-04-07T12:31:00,75s,6.76
2022-04-07T12:32:00,75s,7.36
2022-04-07T12:33:00,75s,7.37
2022-04-07T12:34:00,75s,7.50
2022-04-07T12:35:00,75s,6.82
2022-04-07T12:36:00,75s,6.42
2022-04-07T12:37:00,75s,6.44
2022-04-07T12:38:00,75s,6.40
2022-04-07T12:39:00,75s,6.26
2022-04-07T12:40:00,75s,6.19
2022-04-07T12:41:00,75s,6.23
2022-04-07T12:42:00,75s,22.07
2022-04-07T12:43:00,75s,15.27
2022-04-07T12:44:00,75s,15.44
2022-04-07T12:45:00,75s,15.37
2022-04-07T12:46:00,75s,15.16
2022-04-07T12:47:00,75s,15.05
2022-04-07T12:48:00,75s,15.55
2022-04-07T12:49:00,75s,6.74
2022-04-07T12:50:00,75s,6.70
2022-04-07T12:51:00,75s,5.91
2022-04-07T12:52:00,75s,5.85
2022-04-07T12:53:00,75s,6.38
2022-04-07T12:54:00,75s,5.80
2022-04-07T12:55:00,75s,7.27
2022-04-07T12:56:00,75s,6.76
2022-04-07T12:57:00,75s,6.83
2022-04-07T12:58:00,75s,6.74
2022-04-07T12:59:00,75s,5.98
2022-04-07T13:00:00,75s,6.87
2022-04-07T13:01:00,75s,7.38
2022-04-07T13:02:00,75s,7.48
2022-04-07T13:03:00,75s,7.07
2022-04-07T13:04:00,75s,5.80
2022-04-07T13:05:00,75s,6.08
2022-04-07T13:06:00,75s,6.06
2022-04-07T13:07:00,75s,6.47
2022-04-07T13:08:00,75s,6.10
2022-04-07T13:09:00,75s,7.19
2022-04-07T13:10:00,75s,7.14
2022-04-07T13:11:00,75s,6.35
2022-04-07T13:12:00,75s,6.18
2022-04-07T13:13:00,75s,5.77
2022-04-07T13:14:00,75s,5.95
2022-04-07T13:15:00,75s,5.93
2022-04-07T13:16:00,75s,5.98
2022-04-07T13:17:00,75s,6.61
2022-04-07T13:18:00,75s,6.08
2022-04-07T13:19:00,75s,6.35
2022-04-07T13:20:00,75s,6.14
2022-04-07T13:21:00,75s,6.88
2022-04-07T13:22:00,75s,6.50
2022-04-07T13:23:00,75s,6.08
2022-04-07T13:24:00,75s,6.26
2022-04-07T13:25:00,75s,6.44
2022-04-07T13:26:00,75s,6.61
2022-04-07T13:27:00,75s,6.34
2022-04-07T13:28:00,75s,6.65
2022-04-07T13:29:00,75s,5.95
2022-04-07T13:30:00,75s,6.03
2022-04-07T13:31:00,75s,6.11
2022-04-07T13:32:00,75s,6.08
2022-04-07T13:33:00,75s,6.16
2022-04-07T13:34:00,75s,6.07
2022-04-07T13:35:00,75s,6.13
2022-04-07T13:36:00,75s,5.66
2022-04-07T13:37:00,75s,6.10
2022-04-07T13:38:00,75s,5.68
2022-04-07T13:39:00,75s,5.70
2022-04-07T13:40:00,75s,5.71
2022-04-07T13:41:00,75s,6.13
2022-04-07T13:42:00,75s,5.84
2022-04-07T13:43:00,75s,6.11
2022-04-07T13:44:00,75s,5.83